SCP
0 0 0 0 0 0 0 0 0 0 0 0 0 0 0 0 0 0 0 0 0 0 0 0 0 0 0 0 0 0 0 0 0 0 0 0 0 0 0 0 0 0 0
0 0 0 0 0 0 0 0 0 0 0 0 0 0 0 0 0 0 0 0 0 0 0 0 0 0 0 0 0 0 0 0 0 0 0 0 0 0 0 0 0 0 0
0 0 0 0 0 0 0 0 0 0 0 0 0 0 0 0 0 0 0 0 0 0 0 0 0 0 0 0 0 0 0 0 0 0 0 0 0 0 0 0 0 0 0
0 0 0 0 0 0 0 0 0 0 0 0 0 0 0 0 0 0 0 0 0 0 0 0 0 0 0 0 0 0 0 0 0 0 0 0 0 0 0 0 0 0 0
0 0 0 0 0 0 0 0 0 0 0 0 0 0 0 0 0 0 0 0 0 0 0 0 0 0 0 0 0 0 0 0 0 0 0 0 0 0 0 0 0 0 0
0 0 0 0 0 0 0 0 0 0 0 0 0 0 0 0 0 0 0 0 0 0 0 0 0 0 0 0 0 0 0 0 0 0 0 0 0 0 0 0 0 0 0
0 0 0 0 0 0 0 0 0 0 0 0 0 0 0 0 0 0 0 0 0 0 0 0 0 0 0 0 0 0 0 0 0 0 0 0 0 0 0 0 0 0 0
0 0 0 0 0 0 0 0 0 0 0 0 0 0 0 0 0 0 0 0 0 0 0 0 0 0 0 0 0 0 0 0 0 0 0 0 0 0 0 0 0 0 0
0 0 0 0 0 0 0 0 0 0 0 0 0 0 0 0 0 0 0 0 0 0 0 0 0 0 0 0 0 0 0 0 0 0 0 0 0 0 0 0 0 0 0
0 0 0 0 0 0 0 0 0 0 0 0 0 0 0 0 0 0 0 0 0 0 0 0 0 0 0 0 0 0 0 0 0 0 0 0 0 0 0 0 0 0 0
0 0 0 0 0 0 0 0 0 0 0 0 0 0 0 0 0 0 0 0 0 0 0 0 0 0 0 0 0 0 0 0 0 0 0 0 0 0 0 0 0 0 0
0 0 0 0 0 0 0 0 0 0 0 0 0 0 0 0 0 0 0 0 0 0 0 0 0 0 0 0 0 0 0 0 0 0 0 0 0 0 0 0 0 0 0
0 0 0 0 0 0 0 0 0 0 0 0 0 0 0 0 0 0 0 0 0 0 0 0 0 0 0 0 0 0 0 0 0 0 0 0 0 0 0 0 0 0 0
0 0 0 0 0 0 0 0 0 0 0 0 0 0 0 0 0 0 0 0 0 0 0 0 0 0 0 0 0 0 0 0 0 0 0 0 0 0 0 0 0 0 0
0 0 0 0 0 0 0 0 0 0 0 0 0 0 0 0 0 0 0 0 0 0 0 0 0 0 0 0 0 0 0 0 0 0 0 0 0 0 0 0 0 0 0
0 0 0 0 0 0 0 0 0 0 0 0 0 0 0 0 0 0 0 0 0 0 0 0 0 0 0 0 0 0 0 0 0 0 0 0 0 0 0 0 0 0 0
0 0 0 0 0 0 0 0 0 0 0 0 0 0 0 0 0 0 0 0 0 0 0 0 0 0 0 0 0 0 0 0 0 0 0 0 0 0 0 0 0 0 0
0 0 0 0 0 0 0 0 0 0 0 0 0 0 0 0 0 0 0 0 0 0 0 0 0 0 0 0 0 0 0 0 0 0 0 0 0 0 0 0 0 0 0
0 0 0 0 0 0 0 0 0 0 0 0 0 0 0 0 0 0 0 0 0 0 0 0 0 0 0 0 0 0 0 0 0 0 0 0 0 0 0 0 0 0 0
0 0 0 0 0 0 0 0 0 0 0 0 0 0 0 0 0 0 0 0 0 0 0 0 0 0 0 0 0 0 0 0 0 0 0 0 0 0 0 0 0 0 0
0 0 0 0 0 0 0 0 0 0 0 0 0 0 0 0 0 0 0 0 0 0 0 0 0 0 0 0 0 0 0 0 0 0 0 0 0 0 0 0 0 0 0
0 0 0 0 0 0 0 0 0 0 0 0 0 0 0 0 0 0 0 0 0 0 0 0 0 0 0 0 0 0 0 0 0 0 0 0 0 0 0 0 0 0 0
0 0 0 0 0 0 0 0 0 0 0 0 0 0 0 0 0 0 0 0 0 0 0 0 0 0 0 0 0 0 0 0 0 0 0 0 0 0 0 0 0 0 0
0 0 0 0 0 0 0 0 0 0 0 0 0 0 0 0 0 0 0 0 0 0 0 0 0 0 0 0 0 0 0 0 0 0 0 0 0 0 0 0 0 0 0
0 0 0 0 0 0 0 0 0 0 0 0 0 0 0 0 0 0 0 0 0 0 0 0 0 0 0 0 0 0 0 0 0 0 0 0 0 0 0 0 0 0 0
0 0 0 0 0 0 0 0 0 0 0 0 0 0 0 0 0 0 0 0 0 0 0 0 0 0 0 0 0 0 0 0 0 0 0 0 0 0 0 0 0 0 0
Wind_Speed
1 1 1 1 1 1 1 1 0 0 0 1 1 2 3 3 3 2 2 5 6 7 7 8 8 8 8 9 10 10 10 9 9 8 8 10 10 11 11 12 11 11 11
0 1 1 1 1 1 1 0 0 1 1 1 1 1 2 2 2 3 2 3 5 5 6 6 6 6 7 9 10 10 9 9 9 8 8 8 9 10 10 11 11 11 11
1 1 1 1 1 1 1 0 1 0 0 0 1 1 1 1 1 2 2 1 2 3 4 4 5 5 5 7 8 9 9 8 8 8 8 8 8 9 9 9 10 10 11
1 1 0 1 1 1 1 1 1 1 0 0 0 1 0 1 1 1 1 1 1 1 2 3 3 4 4 5 6 8 8 8 8 8 8 8 8 8 8 8 9 9 9
1 1 0 0 0 1 1 0 1 1 0 1 0 0 1 0 1 1 1 1 1 1 1 2 3 3 4 4 5 6 7 8 8 8 8 7 7 7 7 7 8 8 9
1 1 0 1 0 1 1 1 1 1 1 0 0 1 1 0 0 0 1 1 1 1 1 1 1 2 3 4 4 4 6 6 7 8 8 7 7 7 6 6 7 7 7
1 1 1 1 1 1 0 1 1 1 1 1 1 1 1 1 0 0 0 0 0 1 1 1 1 1 2 3 4 4 5 6 6 7 8 8 8 7 7 7 7 7 8
1 0 0 0 0 0 1 1 1 1 0 1 1 1 2 2 2 1 0 0 1 1 1 1 1 2 2 1 2 4 5 6 6 6 6 6 6 7 7 8 8 8 8
2 1 1 0 0 1 0 0 1 2 1 0 1 2 2 1 2 2 1 1 1 1 1 1 1 2 2 1 2 3 5 5 6 6 6 6 6 6 6 7 7 8 8
2 2 1 1 1 1 0 0 1 1 2 1 0 0 1 2 1 1 2 1 2 1 2 1 1 1 1 1 2 3 4 5 5 6 6 6 6 6 6 7 7 7 8
2 2 1 1 1 0 0 0 1 1 1 1 1 1 1 1 1 1 2 2 2 2 1 1 1 1 1 1 2 3 4 4 5 5 5 5 6 6 6 7 8 8 8
2 2 2 1 1 0 0 0 0 1 1 1 1 1 1 1 1 1 2 2 2 2 2 1 1 1 1 1 3 3 4 4 4 5 5 5 6 6 6 7 8 8 8
2 2 2 1 1 0 0 0 0 1 1 1 1 1 1 1 1 1 1 1 1 2 2 1 1 1 2 2 3 4 3 4 4 4 4 5 5 5 5 6 6 6 7
1 2 1 1 1 1 1 0 0 1 1 1 1 1 1 1 1 2 2 2 1 1 1 2 1 2 2 2 3 4 3 3 4 4 4 4 4 4 4 4 5 5 5
1 1 1 1 1 1 1 0 0 1 0 0 1 1 1 1 1 1 2 2 2 1 2 2 2 2 2 2 3 3 3 3 4 4 4 4 4 4 4 4 4 4 5
1 1 1 1 1 1 1 1 1 1 1 0 0 0 1 1 1 1 1 1 2 2 2 2 2 3 3 3 2 2 3 3 4 4 4 4 4 5 5 5 5 4 5
0 0 0 1 1 2 2 1 1 1 0 1 1 0 1 1 1 1 1 1 1 2 2 2 2 2 2 3 2 2 2 2 2 4 4 5 5 5 5 5 5 5 5
1 1 0 1 1 2 2 1 1 1 0 1 1 1 1 1 1 0 0 1 1 1 2 2 2 2 2 2 2 2 2 2 2 3 4 4 4 4 5 4 5 5 5
1 1 1 1 1 1 1 1 1 1 1 1 1 1 1 1 1 1 0 1 1 1 1 1 2 1 2 2 2 2 2 2 2 2 2 3 4 4 5 5 4 5 5
0 1 0 1 1 1 1 1 1 1 1 2 2 1 1 1 2 1 1 1 1 1 0 0 1 1 1 2 2 2 2 2 2 2 1 1 2 3 4 4 4 4 5
1 1 1 1 1 1 1 1 1 1 1 2 3 2 2 1 1 0 0 0 0 0 0 0 1 1 1 1 2 1 2 2 2 1 1 2 1 1 2 3 3 3 4
1 1 1 1 1 1 3 2 2 1 1 2 3 3 2 2 3 3 2 1 1 1 1 1 1 2 2 2 2 1 1 1 2 1 1 2 1 2 2 2 2 2 2
1 1 1 1 1 2 3 3 2 1 1 1 1 2 2 3 3 2 3 3 2 1 1 2 2 3 2 2 1 2 2 2 2 1 1 2 1 2 2 2 1 1 1
0 0 1 1 1 2 3 3 3 2 1 1 1 1 2 3 3 2 2 2 3 3 2 1 2 3 3 3 2 2 2 1 2 1 1 1 1 2 2 2 2 1 1
0 1 1 1 1 2 3 3 2 1 1 2 2 2 1 2 3 3 1 1 3 3 3 2 2 3 3 3 2 1 0 0 1 2 0 1 1 1 2 1 1 2 2
1 1 1 1 1 1 2 2 1 1 1 1 2 2 3 2 3 2 1 1 2 3 3 3 3 3 3 2 2 2 2 1 1 2 1 1 1 1 1 1 1 2 1
Wind_Direction
18 7 352 347 335 335 333 320 276 253 222 195 190 196 209 213 222 225 245 240 234 231 224 223 222 219 219 217 210 205 204 207 210 211 214 213 207 205 204 203 202 202 201
36 26 6 352 339 333 312 276 255 243 235 215 234 225 219 213 225 225 237 251 241 232 231 228 225 226 224 216 209 206 206 210 210 209 213 211 208 207 207 208 205 203 200
40 50 28 351 333 344 2 65 58 76 124 177 284 277 236 220 215 212 225 238 257 250 246 240 233 230 230 223 214 209 208 210 210 209 208 208 207 204 205 207 206 202 199
52 65 36 336 340 10 47 92 91 90 50 58 317 296 269 225 238 222 207 216 239 255 253 240 236 230 226 229 221 210 206 208 209 210 206 205 203 201 202 201 201 201 202
32 85 41 317 20 44 38 68 86 114 94 41 13 346 344 192 245 217 203 210 220 231 257 266 247 228 229 234 231 215 211 207 207 205 207 205 202 202 204 204 203 203 205
28 78 38 333 59 71 49 46 66 79 98 24 18 31 18 357 30 223 226 212 221 228 236 253 260 235 223 229 227 214 206 205 208 207 204 204 203 202 200 202 204 205 206
17 55 36 9 45 77 79 101 94 79 51 50 70 22 2 337 0 340 279 120 273 256 230 225 227 240 237 234 226 217 214 214 211 206 207 209 211 209 206 203 205 209 211
3 40 69 326 93 121 66 82 104 90 49 67 106 90 7 345 333 328 295 208 266 261 246 234 219 220 231 236 216 223 223 218 212 206 201 204 210 208 212 211 210 211 215
5 14 30 68 77 130 156 175 147 146 158 50 95 131 140 237 306 324 306 306 303 253 262 246 223 226 220 222 230 240 229 219 218 216 212 211 209 203 207 209 210 212 216
7 360 15 53 76 85 113 235 128 151 151 160 132 77 159 156 170 316 328 338 327 299 293 281 251 226 219 223 228 229 230 225 222 220 218 217 214 206 210 213 213 215 221
5 5 7 36 46 44 30 341 112 135 155 162 159 151 128 98 121 197 287 326 338 322 312 294 267 260 245 242 243 232 232 229 224 220 221 223 219 216 217 213 217 222 224
355 3 7 28 37 29 327 271 184 155 162 155 154 146 151 153 183 193 228 278 301 301 301 283 253 253 255 263 258 254 240 233 221 221 223 225 223 221 225 225 224 226 230
335 333 349 355 6 336 311 291 142 193 193 177 180 189 180 183 174 179 186 241 272 294 301 281 264 263 266 267 263 258 252 243 228 224 225 230 230 227 233 232 235 235 237
283 310 332 342 337 340 338 21 345 257 213 197 186 188 193 214 192 189 186 189 255 296 289 277 295 274 282 272 261 259 255 248 230 220 220 225 229 231 231 231 239 240 243
314 350 4 8 2 8 355 46 352 300 211 209 208 209 224 243 220 213 202 183 182 249 278 274 283 297 297 279 270 262 259 257 239 227 223 224 225 225 227 231 239 240 242
349 27 17 359 353 0 7 35 31 358 44 343 244 228 293 291 268 226 204 202 196 200 247 269 270 300 304 296 282 264 259 262 246 235 224 219 217 218 224 228 233 240 243
314 349 312 348 0 6 11 22 354 359 3 335 321 251 283 274 264 253 205 196 204 193 235 277 282 305 297 294 301 291 271 246 244 236 230 223 219 224 232 238 240 248 249
284 279 331 34 20 14 11 25 340 351 347 332 321 333 315 294 276 269 224 239 233 211 218 266 293 313 300 297 296 289 290 271 254 243 240 233 228 231 237 244 245 246 249
316 355 41 38 15 6 14 4 321 339 344 312 314 309 303 305 309 318 289 272 275 270 223 232 283 304 302 322 327 318 317 306 290 277 253 242 241 245 246 248 250 243 243
291 328 348 2 355 19 21 12 9 9 355 328 314 301 295 280 271 267 275 272 281 311 285 245 282 311 310 325 326 328 333 330 308 305 304 284 258 255 253 258 256 255 242
354 357 45 27 7 27 17 23 28 31 14 348 341 332 326 346 2 346 310 237 201 229 316 280 290 315 313 330 321 305 307 318 306 294 308 300 286 273 270 264 263 264 246
350 30 46 37 25 17 23 39 56 33 18 2 348 343 347 7 10 12 14 24 105 173 225 230 263 274 288 294 304 296 298 303 292 306 283 291 293 278 284 278 297 282 264
26 41 23 37 18 358 16 22 39 52 31 9 351 346 1 12 14 6 5 6 355 341 221 212 241 258 265 264 272 296 279 276 275 283 254 276 304 302 306 317 327 319 308
40 16 13 352 346 349 10 27 35 60 48 360 338 336 350 344 353 0 3 3 343 331 306 261 246 259 263 260 236 242 253 282 302 305 292 271 303 312 325 324 337 338 12
216 253 211 236 291 323 2 23 44 75 43 349 346 359 350 330 340 1 32 1 339 328 332 325 293 286 287 277 255 178 190 200 295 303 291 259 289 307 314 321 347 16 20
226 261 284 254 246 291 336 2 47 107 52 348 348 343 342 335 341 359 1 306 307 307 323 335 338 332 311 299 279 215 205 213 262 273 245 221 259 282 298 325 346 350 7